Voltar ao catálogo

ONEWEB-0500

AtivoComunicaçõesPO
NORAD 54118·PAYLOAD·🇬🇧 United Kingdom

Lançado Oct 22, 2022 de Satish Dhawan Space Centre

Loading…

Próximas Passagens (próximas 24 horas)

TLE

AtualizadoSource: CelesTrak SupGP

Época: Sep 15, 2026, 01:26 UTC

1 54118C 22138F   26258.05987686  .00000379  00000+0  94892-3 0  2588
2 54118  87.9116 287.0652 0001859  91.0792 292.8691 13.19723855    16

Acompanhe ONEWEB-0500 em tempo real com AllMySat

Download on the App Store